Location: Bílinka
(49.3579°N, 14.3767°E)
Time: 21:54:43
(UTC+00:00)

Cosmos 1980 Rocket - Pass Details

Date: 28 January 2023
Orbit: 828 x 850 km, 71.0° (Epoch: 28 March)

Event Time Altitude Azimuth Distance (km) Brightness Sun altitude
Rises 16:50:19 0° 191° (SSW) 3,373 5.7 -9.7°
Reaches altitude 10° 16:52:47 10° 187° (S) 2,446 4.9 -10.1°
Maximum altitude 16:58:14 55° 111° (ESE) 1,011 2.3 -10.9°
Drops below altitude 10° 17:03:45 10° 36° (NE) 2,477 4.2 -11.8°
Enters shadow 17:04:31 - 34° (NE) 2,762 4.4 -11.9°
